Location: Unspecified
(52.4292°N, 19.3359°E)
Time: 12:05:51
(UTC+02:00)

deb Explorer IX - Pass Details

Date: 25 May 2024
Orbit: 510 x 886 km, 38.7° (Epoch: 13 June)

Event Time Altitude Azimuth Distance (km) Brightness Sun altitude
Rises 21:49:17 0° 227° (SW) 3,137 ? -7.6°
Reaches altitude 10° 21:52:53 10° 204° (SSW) 2,123 ? -8.0°
Maximum altitude 21:55:25 14° 173° (S) 1,798 ? -8.2°
Enters shadow 21:57:32 11° 144° (SE) 1,947 ? -8.4°
